User: anonymous   Login
Location: Bergnerzell
(49.1816°N, 10.2565°E)
Time: 00:43:03
(UTC+00:00)
Language:

Cosmos 1782 Rocket - Orbit

View from above orbital plane
View from above orbital plane
View from above satellite
View from above satellite

Ground track
Ground track

The orbit data is extracted from the following two-line orbital elements,

1 16987U 86074B   24194.63003503  .00000705  00000-0  81151-4 0  9998
2 16987  82.5145  50.9004 0018692  33.9650  19.6145 14.84238820 20174
Epoch (UTC): 12 July 2024 15:07:15
Eccentricity: 0.0018692
inclination: 82.5145°
perigee height: 603 km
apogee height: 629 km
right ascension of ascending node: 50.9004°
argument of perigee: 33.9650°
revolutions per day: 14.84238820
mean anomaly at epoch: 19.6145°
orbit number at epoch: 2017

The dashed part of the orbit path shows where the satellite is in the earth's shadow,  

DLR